STARLINK-2481 (48138 NORAD) Tracking and Keplerian Element Data

This shows tracking and keplerian element data for the satellite.

Feedback or suggestion? Click here.




ElementValue
Catalog48138
NameSTARLINK-2481
Epoch Orbit185
Epoch Day136.75001157
Epoch Year2021
RAAN146.7969
Inclination53.0456
Eccentricity0.0001245
Argument of Perigee92.1185
Mean Anonmoly61.3682
Mean Motion15.54525496
Decay Rate-0.01089614
L11 48138U 21027AY 21136.75001157 -.01089614 00000-0 -17918-1 0 9993
L22 48138 53.0456 146.7969 0001245 92.1185 61.3682 15.54525496 1855

Live tracking and technical data element details for STARLINK-2481 (NORAD 48138). STARLINK-2481 can be tracked NOW for your location showing map with azimuth and elevation plus other details from your city location.

Track the satellite on the map from your city or location and see movement details for azimuth, elevation, latitude, longitude, range, height, and movement on the map or in text.







IsCatalogInMostPopularTable: catalog: 48138, numindb: 16
Update: records affected: 1



GetName: 48138 STARLINK-2481

Hit Count: updated at: Mon, 17 May 2021 16:30:17 GMT